Home > Weather > Santa Barbara > Past weeks

Flag for USA Weather for the Past 2 Weeks in Santa Barbara, California, USA

Now
54 °F

Mostly cloudy.


Feels Like: 54 °F
Forecast: 50 / 67 °F
Wind: No wind

Location: Santa Barbara Municipal Airport

Current Time: May 1, 2016 at 11:51:02 PM

Latest Report: May 1, 2016 at 11:00 PM


Visibility: 9 mi

Pressure: 30.00 "Hg

Humidity: 90%

Dew Point: 51 °F

Location of Santa BarbaraLocation

Historic Weather in Santa Barbara — Graph

°F

Santa Barbara Temperature Yesterday

Maximum temperature yesterday: 66 °F (at 1:53 PM)
Minimum temperature yesterday: 48 °F (at 6:53 AM)
Average temperature yesterday: 58 °F

High & Low Weather Summary for the Past Weeks

 TemperatureHumidityPressure
High85 °F (Apr 17, 1:53 PM)96% (Apr 22, 4:53 AM)30.07 "Hg (Apr 22, 4:53 AM)
Low46 °F (Apr 26, 5:53 AM)15% (Apr 17, 1:53 PM)29.76 "Hg (Apr 27, 7:53 PM)
Average61 °F61%29.92 "Hg
* Reported Apr 16 9:53 PM — May 1 9:53 PM, Santa Barbara, Weather by CustomWeather, © 2016

Note: Actual official high and low records may vary slightly from our data, if they occured in-between our weather recording intervals... More about our weather records

Advertising

Santa Barbara Weather History for the Previous 24 Hours

Scroll right to see more
 ConditionsComfort  
Time TempWeatherWind HumidityBarometerVisibility
9:53 PM
Sun, May 1
56 °FClear.No wind87%29.99 "Hg8 mi
8:53 PM55 °FClear.5 mph90%29.96 "Hg8 mi
7:53 PM57 °FSunny.3 mph87%29.94 "Hg7 mi
6:53 PM60 °FSunny.5 mph78%29.92 "Hg8 mi
5:53 PM63 °FSunny.10 mph68%29.91 "Hg10 mi
4:53 PM63 °FSunny.12 mph68%29.92 "Hg10 mi
3:53 PM62 °FSunny.12 mph75%29.92 "Hg8 mi
2:53 PM64 °FSunny.12 mph70%29.93 "Hg9 mi
1:53 PM64 °FSunny.13 mph70%29.92 "Hg9 mi
12:53 PM64 °FSunny.9 mph70%29.92 "Hg7 mi
11:53 AM63 °FSunny.15 mph73%29.92 "Hg9 mi
10:53 AM64 °FSunny.13 mph68%29.92 "Hg10 mi
9:53 AM63 °FSunny.10 mph65%29.91 "Hg10 mi
8:53 AM61 °FSunny.6 mph72%29.91 "Hg9 mi
7:53 AM60 °FSunny.8 mph69%29.89 "Hg10 mi
6:53 AM54 °FClear.5 mph80%29.87 "Hg10 mi
5:53 AM52 °FClear.5 mph86%29.84 "Hg10 mi
4:53 AM53 °FClear.3 mph86%29.83 "Hg9 mi
3:53 AM54 °FClear.6 mph86%29.83 "Hg8 mi
2:53 AM52 °FClear.No wind89%29.82 "Hg8 mi
1:53 AM53 °FClear.5 mph86%29.81 "Hg9 mi
12:53 AM52 °FClear.5 mph83%29.82 "Hg10 mi
11:53 PM
Sat, Apr 30
55 °FClear.No wind77%29.81 "Hg10 mi
Weather by CustomWeather, © 2016

See weather overviewHow to use our weather pages